Flag for United Kingdom Weather past 2 weeks in Reading, England, United Kingdom

Now
72 °F

Broken clouds.


Feels Like: 77 °F
Forecast: 54 / 68 °F
Wind: 17 mph from Southwest

Location: Benson

Current Time: Aug 3, 2015 at 4:36:27 PM

Latest Report: Aug 3, 2015 at 3:50 PM


Visibility: N/A

Pressure: 29.83 "Hg

Humidity: 53%

Dew point: 54 °F

Location of ReadingLocation

Historic Weather in Reading — Graph

°F

Reading temperature yesterday

Maximum temperature yesterday: 77 °F (at 3:50 PM)
Minimum temperature yesterday: 48 °F (at 4:50 AM)
Average temperature yesterday: 64 °F

Past Weeks' High & Low Weather Summary

 TemperatureHumidityPressure
High77 °F (Jul 21, 1:50 PM)100% (Jul 24, 3:50 PM)30.15 "Hg (Jul 24, 3:50 PM)
Low37 °F (Jul 31, 3:50 AM)25% (Jul 19, 3:50 PM)29.42 "Hg (Jul 26, 6:50 PM)
Average59 °F72%29.87 "Hg
* Reported Jul 19 2:50 PM — Aug 3 2:50 PM, Reading, Weather by CustomWeather, © 2015

Note: Actual official high and low records may vary slightly from our data, if they occured in-between our weather recording intervals... More about our weather records

Advertising

Reading weather history for previous 24 hours

 ConditionsComfort  
Time TempWeatherWind HumidityBarometerVisibility
2:50 PM
Mon, Aug 3
70 °FPartly sunny.20 mph60%29.83 "HgN/A
1:50 PM70 °FPartly sunny.15 mph60%29.83 "HgN/A
12:50 PM70 °FPartly sunny.20 mph60%29.83 "HgN/A
11:50 AM72 °FScattered clouds.18 mph57%29.83 "HgN/A
10:50 AM66 °FBroken clouds.12 mph88%29.83 "HgN/A
9:50 AM68 °FPartly sunny.17 mph100%29.83 "HgN/A
8:50 AM66 °FPartly sunny.15 mph100%29.83 "HgN/A
7:50 AM63 °FScattered clouds.10 mph100%29.80 "HgN/A
6:50 AM61 °FPartly sunny.6 mph100%29.80 "HgN/A
5:50 AM59 °FPassing clouds.3 mphN/A29.80 "HgN/A
4:50 AM57 °FPassing clouds.5 mph82%29.77 "HgN/A
3:50 AM61 °FPassing clouds.5 mph68%29.77 "HgN/A
2:50 AM64 °FPassing clouds.12 mph56%29.77 "HgN/A
1:50 AM64 °FPassing clouds.9 mph56%29.80 "HgN/A
12:50 AM66 °FClear.18 mph100%29.80 "HgN/A
11:50 PM
Sun, Aug 2
68 °FPassing clouds.21 mph100%29.83 "HgN/A
10:50 PM68 °FOvercast.20 mph100%29.83 "HgN/A
9:50 PM70 °FPartly sunny.13 mph100%29.86 "HgN/A
8:50 PM68 °FPartly sunny.7 mph46%29.89 "HgN/A
7:50 PM72 °FSunny.8 mphN/A29.89 "HgN/A
6:50 PM73 °FPassing clouds.13 mph100%29.92 "HgN/A
5:50 PM75 °FSunny.18 mph100%29.92 "HgN/A
4:50 PM75 °FSunny.17 mph34%29.95 "HgN/A
Weather by CustomWeather, © 2015

See weather overviewHow to use our weather pages